Wind_Speed
27 27 28 28 29 29 27 26 26 26 26 26 25 25 24 24 24 24 21 20 19 19 19 18 18 17 17 16 16 15 15 14 14 13 13 13 12 12 11 11 11 11 11 11 11 11 11 11 11
29 29 29 29 29 28 26 26 28 27 27 26 26 26 26 26 25 24 22 21 20 20 20 19 19 19 18 18 18 17 16 16 15 15 15 14 14 14 13 13 13 13 13 13 13 13 13 13 13
30 30 30 30 29 28 26 28 28 28 27 27 27 27 27 27 25 24 24 23 22 21 21 20 20 20 20 20 19 19 18 18 17 17 17 16 16 16 16 16 15 15 15 15 15 15 15 15 14
31 32 32 31 30 28 28 29 27 28 28 28 28 28 29 28 26 26 25 25 24 22 22 22 21 21 21 21 21 20 20 20 19 19 19 18 18 18 18 18 18 18 17 17 17 17 17 16 16
31 32 33 32 30 29 29 30 28 28 29 29 29 29 28 28 27 27 27 26 25 24 23 23 23 22 22 22 22 22 22 21 21 21 21 21 20 20 20 20 20 20 19 19 19 19 19 18 18
31 32 32 31 30 30 31 31 30 29 30 29 29 29 28 28 28 28 28 28 27 26 25 25 24 24 23 23 23 23 23 23 23 22 22 22 22 21 21 21 21 21 21 21 21 21 20 20 20
31 31 31 31 31 31 31 32 31 30 31 30 30 30 29 28 28 28 29 28 28 27 27 26 25 25 25 25 25 24 24 24 23 23 23 23 23 23 23 23 23 22 22 22 22 21 21 21 22
32 32 31 31 31 31 31 32 31 32 32 32 31 31 30 27 28 28 28 28 28 28 27 27 26 25 25 26 26 25 25 25 24 24 24 24 24 24 24 24 24 24 24 23 23 23 23 23 24
33 33 32 32 32 32 32 32 31 32 32 32 32 32 30 29 29 29 28 28 28 28 27 27 26 26 26 26 26 26 26 26 26 26 26 26 26 26 26 26 26 26 25 25 25 25 25 25 25
34 33 31 32 33 33 32 32 31 32 32 33 32 32 32 31 31 30 30 29 29 28 28 27 27 27 26 26 26 26 26 26 26 27 27 27 27 26 26 27 27 27 27 27 27 27 27 26 26
35 33 32 33 33 33 33 33 32 33 33 33 33 33 33 33 32 32 31 31 30 30 29 28 28 28 28 27 27 27 27 27 28 28 28 28 28 28 27 28 28 28 28 28 29 29 28 28 28
36 35 34 34 34 34 34 34 33 33 33 33 33 33 34 33 33 33 33 32 31 30 30 30 29 29 29 29 29 28 28 28 29 29 29 29 29 29 28 29 29 29 29 30 30 30 31 31 31
37 36 35 35 35 35 35 35 34 33 34 34 33 33 33 33 33 33 33 33 32 32 31 31 30 30 30 30 30 30 30 30 30 30 30 30 30 30 30 30 30 30 31 31 31 32 32 33 33
38 37 37 37 36 35 36 36 35 33 34 35 35 34 34 34 34 34 34 34 34 33 33 32 32 32 32 32 32 32 32 32 31 31 32 32 32 32 32 32 33 33 33 34 34 34 35 35 35
40 39 38 38 38 37 37 37 35 33 35 35 35 35 35 35 35 35 35 35 35 35 35 34 34 33 33 33 33 34 34 34 33 33 33 34 34 34 35 35 36 36 36 37 37 37 37 37 38
41 41 40 38 39 39 39 37 36 35 36 35 35 35 35 36 36 36 36 36 36 36 35 35 36 35 35 35 35 35 35 35 35 35 35 36 36 37 38 38 38 39 39 39 39 39 39 40 40
41 41 40 40 40 40 41 39 36 36 37 36 36 35 35 36 36 36 36 36 37 37 36 36 36 36 36 36 36 37 37 37 37 37 37 38 38 39 40 41 41 41 41 41 41 41 41 42 42
41 41 41 41 41 42 42 41 39 38 38 37 37 36 36 36 36 37 37 37 37 37 36 36 36 36 36 37 37 37 38 38 39 39 40 40 40 41 42 42 43 43 43 43 43 43 43 43 43
42 42 41 42 42 43 43 43 41 40 40 39 38 38 37 37 37 37 37 38 38 37 37 37 36 36 36 37 37 37 38 39 40 41 41 42 42 43 43 43 43 43 43 43 44 44 44 45 45
43 43 42 43 43 44 44 44 43 42 42 41 40 39 38 39 39 38 38 38 38 37 37 37 37 37 37 37 38 38 39 40 41 41 42 42 43 43 43 43 43 44 44 44 44 45 45 46 46
45 44 43 44 45 45 45 45 44 43 43 42 41 40 40 39 39 39 38 38 38 38 38 38 38 38 38 38 39 39 40 41 41 42 42 42 43 43 43 43 43 44 45 45 45 46 46 46 47
46 45 44 45 45 45 46 47 44 43 43 43 42 41 40 40 40 39 39 39 39 39 39 39 39 39 39 40 40 40 41 41 42 43 43 43 43 43 43 43 43 44 44 44 45 45 46 46 47
46 45 45 46 46 47 45 47 45 44 44 43 43 42 41 41 41 40 40 40 40 40 40 40 40 40 40 40 41 41 41 42 43 42 43 43 43 43 43 43 43 44 44 45 45 45 45 46 47
45 45 46 46 47 49 45 47 46 45 43 43 42 42 41 42 42 41 41 40 41 41 41 41 41 41 41 41 41 41 42 42 43 43 43 43 43 43 43 43 43 43 44 44 45 45 46 47 47
44 44 45 46 47 48 46 47 47 45 43 43 42 42 42 43 42 42 41 41 41 41 41 42 42 42 42 42 42 42 43 43 44 43 43 44 43 43 44 44 44 44 44 45 45 46 47 48 49
43 43 44 45 46 46 45 46 46 45 43 42 42 42 42 43 43 43 42 42 42 42 42 42 43 43 44 44 44 44 44 44 44 44 44 44 44 44 44 45 45 46 46 47 47 48 49 50 51
42 42 42 43 45 45 46 46 46 45 44 42 42 42 42 43 43 43 43 43 43 43 43 43 44 44 45 45 44 45 45 45 45 45 45 45 45 46 46 46 47 47 48 49 49 50 50 51 52
41 41 41 43 44 45 45 45 44 44 43 42 42 42 42 43 43 44 44 44 44 44 44 44 44 45 45 45 46 46 46 46 46 46 46 46 46 47 47 48 49 49 49 50 51 51 52 52 53
39 40 41 42 43 43 44 44 44 44 44 44 44 44 44 44 44 44 44 44 44 45 45 45 45 45 46 46 46 46 46 47 47 47 47 47 48 49 49 50 51 51 51 51 52 52 53 53 54
40 40 40 41 42 43 43 44 42 43 44 44 43 44 44 44 44 44 44 44 44 45 45 45 46 46 46 47 47 47 47 48 48 48 48 48 49 50 51 52 52 52 52 53 53 53 54 54 55
Wind_Direction
238 239 239 238 238 238 239 239 239 237 237 238 240 241 243 244 245 248 248 246 246 246 247 248 249 250 249 249 250 250 251 251 252 254 255 256 257 259 261 263 265 267 268 270 270 271 273 276 277
238 238 238 238 239 239 238 238 238 237 238 238 239 240 241 243 244 246 247 246 245 246 247 249 250 251 251 250 251 251 251 251 252 254 255 256 257 259 261 263 265 266 268 269 271 271 273 274 275
238 238 238 238 239 239 238 238 238 238 239 238 239 240 240 242 244 245 246 246 245 246 247 249 250 251 251 250 251 253 254 254 254 255 257 258 259 260 262 264 265 267 268 269 269 271 272 273 273
238 238 238 239 238 238 240 241 241 241 239 239 239 239 240 242 243 244 244 245 245 246 248 250 251 252 252 252 252 253 255 257 258 258 259 259 260 261 263 264 266 267 269 269 269 270 271 273 273
238 238 239 239 238 238 239 241 242 241 239 238 239 239 240 241 241 242 244 245 246 247 248 250 251 252 253 253 253 254 255 257 258 260 260 261 262 262 264 265 266 267 268 268 269 269 271 271 273
238 238 238 238 237 237 238 241 242 241 240 238 239 240 240 240 241 242 243 245 246 247 249 250 251 252 253 253 253 254 255 257 259 260 261 261 262 263 264 266 267 268 268 269 269 270 270 271 272
237 238 238 237 236 236 238 240 241 241 241 239 239 241 240 239 241 242 243 244 245 246 248 251 252 252 253 253 254 255 256 257 258 259 260 261 263 264 266 267 268 268 268 269 270 270 271 272 273
237 238 238 238 238 238 238 240 240 240 240 240 240 241 241 240 241 242 243 244 245 246 248 249 251 252 253 253 254 254 255 257 258 259 261 262 263 264 265 266 266 267 267 268 269 270 271 272 273
237 238 237 238 239 239 239 240 240 241 241 241 241 242 242 242 242 243 244 245 245 246 247 248 250 252 252 252 253 254 255 257 258 259 261 262 264 265 265 264 265 266 266 267 268 270 271 272 273
238 238 238 238 239 240 240 241 241 241 241 241 241 242 243 243 243 244 244 245 245 246 247 248 250 251 252 252 253 254 256 257 259 260 261 263 264 264 265 264 264 265 266 267 268 269 270 271 272
239 239 238 238 239 241 241 241 241 242 242 242 241 242 243 243 244 244 245 246 246 247 248 249 250 251 252 254 255 256 257 258 260 261 263 264 265 265 265 265 266 266 266 267 269 270 270 271 271
240 239 239 238 238 240 241 242 242 242 243 244 243 243 244 244 245 245 246 247 247 248 250 251 251 252 253 255 256 257 259 260 261 263 265 266 266 265 265 266 267 267 268 268 269 270 271 272 272
240 239 239 238 239 240 241 242 242 243 244 245 245 244 244 244 245 246 247 247 248 249 250 251 252 254 255 256 257 259 260 261 263 264 266 267 266 265 265 265 267 269 270 269 269 271 272 273 274
240 240 239 239 240 240 242 243 243 244 245 245 245 245 244 244 245 246 248 249 249 250 251 252 254 256 257 258 258 260 261 263 264 265 267 268 267 266 266 266 267 269 271 271 270 271 272 273 273
240 240 240 240 241 241 243 243 244 244 245 245 245 245 245 245 246 247 248 249 250 251 252 254 256 257 259 260 261 262 263 264 265 266 268 269 268 267 268 268 269 270 271 272 271 271 271 273 273
241 241 241 241 242 242 244 244 244 244 245 245 246 245 245 245 246 247 248 249 250 252 253 255 256 258 259 261 262 263 264 265 266 268 269 270 270 269 269 270 271 272 273 273 273 271 272 272 273
241 243 243 242 242 243 244 244 243 244 245 245 246 246 246 246 247 248 249 249 251 252 254 255 256 258 259 261 262 263 264 266 267 269 270 272 272 271 271 271 272 273 274 274 274 272 272 273 274
243 244 243 244 242 243 244 244 243 243 245 246 246 247 247 247 247 248 249 250 251 253 254 256 257 258 259 261 262 263 265 266 267 269 271 272 273 273 272 272 273 273 274 274 274 273 272 273 274
243 243 244 244 244 244 245 244 244 244 245 246 247 247 247 248 248 249 250 251 252 253 255 256 258 259 260 261 263 263 265 266 268 270 272 273 274 274 273 273 273 273 274 274 274 274 273 273 274
243 244 244 245 245 246 246 245 245 246 246 247 248 249 249 249 250 250 251 252 253 254 255 256 258 259 260 262 263 264 265 267 269 271 273 274 275 275 274 274 275 274 275 274 274 274 274 274 275
242 244 244 246 246 247 248 246 246 246 246 247 248 249 250 250 251 251 251 253 254 254 255 257 258 259 261 262 263 265 266 268 270 272 273 275 275 276 275 275 276 275 275 275 274 275 275 275 275
243 243 244 246 247 247 248 248 245 246 246 247 248 249 250 251 252 252 252 253 254 255 256 257 258 260 261 262 264 266 268 269 270 272 273 274 275 276 276 275 276 277 276 276 276 276 276 276 277
243 243 244 245 247 248 247 250 246 246 247 247 248 249 250 251 252 252 253 254 255 256 257 258 259 260 261 262 264 266 268 270 271 272 273 275 276 276 276 275 275 276 276 277 277 278 278 278 279
242 243 244 245 246 248 248 251 249 247 248 248 249 250 251 251 252 253 254 255 256 257 258 258 259 260 261 263 265 266 268 270 271 272 273 274 275 275 275 276 276 277 277 277 278 279 279 280 280
242 243 244 245 246 249 249 251 251 249 249 250 250 250 252 252 252 253 254 255 257 257 258 259 260 261 262 263 265 267 269 270 271 272 273 274 275 275 275 277 278 278 279 279 279 280 280 281 281
242 243 244 246 249 250 250 251 251 251 251 251 251 252 253 253 253 254 254 255 257 258 259 260 261 262 263 264 265 267 269 270 271 272 273 274 275 276 277 278 278 279 279 279 280 280 281 282 282
240 241 243 246 248 250 251 252 252 251 252 252 252 253 254 254 254 254 255 256 257 258 259 260 261 262 263 264 266 267 269 270 271 272 273 273 274 275 277 278 278 279 279 279 280 281 282 283 283
241 242 242 244 247 250 252 252 253 252 253 254 254 254 255 255 256 255 256 257 258 259 260 261 262 262 263 264 266 267 269 270 271 271 273 273 274 276 277 278 279 280 280 280 281 282 282 282 283
240 241 243 244 246 249 251 253 253 256 256 256 254 254 254 255 256 256 256 257 259 259 261 262 262 263 264 265 266 268 269 270 271 272 273 274 275 276 277 279 280 280 280 280 281 282 282 282 283
241 242 242 243 245 248 250 251 253 256 258 259 258 256 256 256 257 258 258 258 259 260 261 262 262 263 264 265 266 267 268 270 271 272 274 275 276 277 278 279 280 280 280 281 281 282 282 283 284
Height
5808 5809 5812 5814 5817 5819 5822 5825 5826 5828 5830 5832 5835 5836 5838 5840 5842 5845 5846 5847 5849 5851 5852 5853 5854 5855 5856 5857 5859 5860 5861 5861 5862 5863 5864 5864 5865 5865 5866 5867 5867 5867 5868 5868 5868 5869 5869 5869 5869
5803 5805 5807 5810 5812 5815 5818 5820 5821 5823 5826 5829 5830 5832 5834 5835 5838 5840 5842 5844 5846 5847 5849 5850 5851 5852 5853 5855 5856 5857 5858 5859 5860 5861 5862 5862 5863 5863 5864 5864 5865 5866 5866 5866 5866 5867 5867 5867 5867
5798 5800 5802 5805 5807 5811 5814 5814 5816 5819 5822 5824 5826 5828 5830 5832 5834 5836 5838 5840 5842 5844 5845 5847 5848 5849 5850 5852 5853 5854 5855 5856 5857 5858 5859 5860 5860 5861 5862 5862 5863 5863 5863 5864 5864 5864 5865 5865 5865
5792 5795 5797 5801 5804 5807 5808 5809 5812 5814 5817 5819 5821 5824 5826 5828 5831 5833 5834 5836 5838 5840 5841 5843 5844 5846 5847 5848 5850 5851 5852 5853 5854 5855 5856 5857 5858 5858 5859 5859 5860 5860 5861 5861 5861 5862 5862 5862 5862
5786 5789 5792 5795 5799 5802 5803 5804 5807 5809 5812 5814 5817 5819 5821 5824 5826 5828 5830 5832 5834 5836 5838 5839 5840 5842 5843 5845 5846 5847 5848 5850 5851 5852 5853 5853 5854 5855 5855 5856 5857 5857 5857 5858 5858 5859 5859 5859 5859
5781 5783 5787 5790 5794 5796 5798 5800 5802 5804 5807 5809 5812 5814 5817 5819 5821 5824 5825 5827 5830 5832 5834 5835 5837 5838 5839 5841 5842 5843 5845 5846 5847 5848 5849 5850 5850 5851 5852 5852 5853 5853 5854 5854 5855 5855 5856 5856 5856
5776 5778 5781 5784 5787 5790 5792 5794 5796 5799 5801 5804 5807 5809 5811 5815 5817 5819 5821 5823 5825 5827 5829 5831 5832 5834 5835 5837 5838 5839 5840 5842 5843 5844 5844 5845 5846 5847 5848 5848 5849 5850 5850 5850 5851 5851 5852 5852 5852
5769 5773 5775 5778 5781 5784 5786 5788 5791 5794 5796 5799 5802 5804 5807 5811 5812 5814 5816 5818 5820 5823 5825 5826 5828 5830 5831 5832 5834 5835 5836 5837 5838 5839 5840 5841 5842 5843 5843 5844 5845 5845 5846 5846 5847 5847 5848 5848 5848
5763 5767 5770 5773 5775 5778 5780 5782 5785 5788 5790 5793 5796 5799 5802 5805 5807 5809 5811 5813 5816 5818 5820 5822 5823 5825 5826 5828 5829 5830 5831 5833 5834 5835 5836 5836 5837 5838 5838 5839 5840 5840 5841 5841 5842 5842 5843 5843 5843
5756 5760 5764 5767 5769 5771 5774 5777 5780 5782 5785 5788 5791 5793 5796 5799 5801 5804 5806 5808 5811 5813 5815 5817 5819 5820 5821 5823 5824 5825 5827 5828 5829 5830 5830 5831 5832 5832 5833 5834 5834 5835 5836 5836 5837 5837 5838 5838 5838
5750 5754 5757 5760 5762 5765 5767 5771 5774 5776 5779 5782 5785 5788 5790 5793 5796 5798 5801 5803 5805 5807 5809 5811 5813 5815 5816 5818 5819 5820 5821 5822 5823 5824 5825 5826 5826 5827 5828 5828 5829 5829 5830 5831 5831 5832 5832 5833 5833
5743 5747 5750 5753 5756 5758 5761 5764 5767 5770 5773 5775 5778 5782 5784 5787 5790 5792 5795 5797 5800 5802 5804 5806 5808 5809 5811 5812 5814 5815 5816 5817 5818 5819 5819 5820 5821 5821 5822 5823 5823 5824 5824 5825 5825 5826 5826 5826 5827
5735 5739 5742 5746 5749 5752 5754 5757 5760 5764 5767 5769 5772 5775 5778 5781 5783 5786 5788 5791 5794 5796 5798 5800 5802 5803 5805 5806 5808 5809 5810 5811 5812 5813 5813 5814 5815 5815 5816 5817 5817 5817 5818 5818 5819 5819 5819 5820 5820
5728 5731 5735 5738 5741 5745 5747 5750 5754 5758 5760 5763 5765 5769 5772 5774 5777 5779 5782 5785 5787 5789 5792 5794 5795 5797 5799 5800 5801 5803 5804 5805 5806 5807 5807 5807 5808 5808 5809 5810 5810 5811 5811 5811 5812 5812 5812 5812 5812
5719 5723 5727 5731 5734 5737 5740 5744 5748 5751 5753 5756 5759 5762 5765 5767 5770 5773 5775 5778 5780 5782 5785 5787 5789 5790 5792 5793 5795 5796 5797 5798 5799 5800 5800 5800 5801 5801 5802 5802 5803 5803 5803 5804 5804 5804 5804 5804 5804
5711 5714 5719 5724 5727 5729 5733 5737 5741 5743 5745 5749 5752 5755 5757 5760 5763 5766 5768 5771 5773 5775 5778 5780 5782 5783 5785 5786 5787 5788 5790 5791 5791 5792 5792 5793 5793 5793 5794 5794 5795 5795 5795 5795 5795 5795 5795 5795 5795
5702 5706 5711 5715 5718 5721 5724 5729 5733 5735 5738 5741 5744 5747 5750 5753 5756 5758 5761 5764 5766 5768 5770 5772 5774 5776 5777 5778 5780 5781 5782 5783 5783 5784 5784 5784 5784 5785 5785 5785 5785 5785 5786 5786 5786 5786 5786 5786 5786
5695 5698 5702 5705 5709 5712 5715 5720 5724 5727 5730 5733 5736 5739 5743 5746 5749 5751 5753 5756 5758 5760 5763 5765 5766 5768 5769 5770 5772 5773 5774 5774 5775 5775 5775 5775 5775 5775 5775 5776 5776 5776 5776 5776 5776 5776 5775 5775 5775
5685 5688 5692 5696 5699 5702 5706 5710 5715 5718 5722 5725 5728 5732 5735 5738 5740 5743 5745 5748 5750 5753 5755 5756 5758 5760 5761 5762 5763 5764 5765 5765 5766 5766 5766 5766 5765 5765 5765 5766 5765 5765 5765 5765 5765 5765 5765 5764 5764
5675 5679 5683 5686 5690 5693 5696 5701 5706 5709 5713 5717 5720 5723 5727 5729 5732 5735 5737 5739 5742 5744 5746 5748 5750 5751 5753 5754 5755 5756 5756 5756 5757 5757 5756 5755 5755 5755 5755 5755 5755 5755 5754 5754 5754 5754 5754 5754 5753
5666 5670 5674 5677 5680 5683 5687 5691 5696 5701 5704 5708 5711 5715 5718 5721 5723 5726 5729 5731 5733 5735 5737 5739 5741 5742 5744 5745 5746 5747 5747 5748 5748 5748 5747 5746 5745 5745 5745 5745 5745 5744 5744 5744 5743 5743 5742 5743 5742
5656 5661 5664 5667 5670 5673 5678 5680 5688 5691 5694 5698 5702 5706 5709 5712 5715 5717 5720 5722 5724 5726 5728 5730 5732 5733 5735 5736 5737 5738 5738 5739 5739 5738 5737 5736 5736 5736 5735 5735 5735 5734 5733 5733 5732 5731 5731 5731 5731
5646 5651 5654 5657 5660 5663 5668 5670 5678 5682 5685 5690 5693 5697 5700 5703 5705 5708 5711 5713 5715 5717 5719 5720 5722 5724 5725 5726 5727 5728 5729 5729 5729 5728 5727 5727 5727 5726 5726 5725 5725 5724 5723 5723 5722 5721 5721 5720 5719
5637 5641 5644 5646 5649 5653 5660 5661 5666 5672 5676 5680 5684 5687 5690 5693 5696 5699 5701 5704 5706 5707 5709 5711 5713 5714 5716 5717 5718 5719 5719 5719 5719 5718 5718 5718 5717 5716 5716 5715 5714 5713 5713 5712 5712 5711 5710 5709 5708
5627 5632 5635 5637 5639 5644 5650 5652 5657 5662 5667 5671 5675 5678 5680 5683 5686 5689 5692 5694 5696 5698 5699 5701 5703 5705 5706 5707 5708 5708 5709 5709 5709 5708 5708 5708 5707 5706 5705 5704 5704 5703 5702 5701 5701 5700 5699 5697 5696
5618 5622 5627 5629 5632 5636 5640 5642 5648 5653 5657 5661 5664 5668 5670 5673 5676 5679 5682 5684 5686 5688 5690 5691 5693 5694 5695 5696 5697 5698 5698 5698 5698 5698 5698 5697 5697 5696 5695 5694 5693 5692 5691 5690 5689 5688 5687 5685 5684
5608 5612 5617 5620 5622 5626 5629 5633 5638 5642 5646 5651 5654 5657 5660 5663 5666 5669 5672 5674 5676 5678 5680 5681 5683 5684 5685 5686 5687 5687 5687 5687 5688 5687 5687 5686 5686 5685 5684 5683 5682 5681 5680 5679 5677 5676 5674 5673 5671
5600 5603 5607 5610 5613 5616 5621 5625 5629 5632 5636 5640 5644 5647 5650 5653 5655 5658 5661 5664 5666 5668 5669 5671 5672 5673 5674 5675 5675 5676 5676 5676 5676 5676 5675 5675 5674 5673 5672 5671 5670 5669 5668 5666 5665 5663 5661 5660 5658
5591 5595 5597 5601 5604 5608 5612 5618 5619 5623 5626 5629 5633 5636 5639 5642 5645 5648 5650 5653 5655 5657 5659 5660 5661 5662 5663 5664 5664 5665 5665 5665 5664 5664 5664 5663 5662 5661 5660 5659 5658 5656 5655 5653 5651 5650 5648 5646 5645
5580 5584 5588 5592 5595 5599 5603 5609 5610 5613 5615 5618 5622 5625 5628 5631 5634 5636 5639 5642 5644 5646 5647 5649 5650 5651 5652 5652 5653 5653 5653 5653 5653 5652 5652 5651 5650 5649 5648 5646 5645 5643 5641 5639 5638 5636 5634 5632 5630